ONEWEB-0688, 61596

Orbit data source: Space-Track

ONEWEB-0688, 61596 is a payload satellite owned by Eut. One Web (UK) in LEO that was launched on Sun, 20 Oct 2024 UTC via an FALCON 9 launch vehicle from the Air Force Western Test Range (AFWTR). Payload-class satellites include a variety of spacecraft equipped with specific instruments for various scientific and technological missions. These include communications satellites like Starlink; space stations such as the ISS; scientific satellites like the Hubble; Earth observation satellites from companies like Planet Labs, Umbra, and HawkEye 360; GPS; miniature CubeSats for education and research; and military/defense satellites.

Loading next visibility...
Identifier
61596, 2024-188C
Orbit
LEO
Last TLE update
8 hours ago
Origin
Manufacturer
One Web
Mission
Operational Commercial Communications
Bus & Motor
ARROW, Unknown motor
Mass
148 kg wet, ~140 kg dry
Launch date (UTC)
2024-10-20 (9 months ago)
Launch vehicle
FALCON 9
Launch site
Air Force Western Test Range (AFWTR)
Object type
Payload
Rocket body
Debris
Shape & HBR
Trap Box + 2 Pan, 5 m
Radar Cross Section
2.032 m², Large (>1 m²)

Expand to show TLE details & history

TLE from 8 hours ago
0 ONEWEB-0688
1 61596U 24188C   25187.59818694 -.00000053  00000-0 -16933-3 0  9998
2 61596  87.9063  74.7140 0000491  93.8760 266.2427 13.17893717 40383
Epoch: 2025-07-06T14:21Z
TLE epoch observation values (Epoch: 2025-07-06T14:21:23.351Z)
Latitude
-0.00011°
Longitude
-65.45288°
Altitude
1,195.699 km
Speed
7.256 km/s
True Right ascension
04h 58m 51s
True Declination
0° 00' 00"
Sunlit
Object was in daylight at epoch
Visualization orbit readout
Latitude
-9.19164°
Longitude
114.81583°
Altitude
1,197.371 km
Speed
7.255 km/s
Apparent Right ascension
19h 05m 30s
Apparent Declination
-29° 25' 01"
Sunlit
Object is in full shadow
Visualization observer readout
Local Sidereal Time
10:36:13
Azimuth
93.128° ESE
Elevation
-46.07°
Doppler factor
1
Orbital elements
Apogee altitude
1,190.256 km
Perigee altitude
1,189.513 km
Semi-major axis
7,568.021 km
Eccentricity
0.00005
Inclination
87.9063°
RAAN
74.714°
Arg. of periapsis
93.876°
True anomaly
Unknown
Mean anomaly
266.2427°
Eccentric anomaly
Unknown
Mean motion
3.29663 °/min
Orbital period
109.2 mins
BSTAR
-0.00016933
Loading maneuver chart data...
Loading SW <> Apogee altitude chart data...
Loading historical data...
Loading historical data...
Loading historical data...
Loading historical data...
Loading historical data...
Loading historical data...
Loading historical data...

ONEWEB-0688 Visibility forecast

Observer location: undefined°, undefined°

Span
Click to sort rows by Start time (UTC) header in descending order
Start Az.
Max El. time (UTC)
Max El. Az.
Max El.
End time (UTC)
End Az.
12 mins2025-07-07 03:43:04.197Z20.021° NNE2025-07-07 03:49:04.197Z83.321° E29.211°2025-07-07 03:55:04.197Z142.534° SSE
11 mins2025-07-07 05:33:04.197Z340.127° N2025-07-07 05:38:04.197Z282.796° WNW33.706°2025-07-07 05:44:04.197Z214.059° SW
11 mins2025-07-07 15:59:04.197Z138.225° SSE2025-07-07 16:04:04.197Z85.449° E30.346°2025-07-07 16:10:04.197Z20.356° NNE
12 mins2025-07-07 17:48:04.197Z214.85° SW2025-07-07 17:54:04.197Z286.827° WNW32.336°2025-07-07 18:00:04.197Z345.007° N
|